This demonstration page uses our WeatherBlox Daily Observations layout. Learn more.

Hourly Observations for December 2, 2017

Temp ( °F °C ) Dew Point ( °F °C ) Humidity (%) Winds ( mph kmh ) Pressure ( in mb ) Visibility ( mi km ) Precip ( " mm )
12:15 am 00:15 Clear 30 -1 24 -4.7 76 76 NNW 7 11 30.24 1024 10 16.09344 0 0
12:35 am 00:35 Clear 32 0 24 -4.2 74 74 NNW 8 13 30.21 1023 10 16.09344 0 0
12:55 am 00:55 Clear 33 0.3 24 -4.5 70 70 NW 7 11 30.21 1023 10 16.09344 0 0
1:15 am 01:15 Clear 31 -0.5 23 -5 72 72 NW 7 11 30.21 1023 10 16.09344 0 0
1:35 am 01:35 Clear 31 -0.4 23 -5 71 71 NW 7 11 30.21 1023 10 16.09344 0 0
1:55 am 01:55 Clear 30 -1.2 22 -5.6 72 72 NW 7 11 30.21 1023 10 16.09344 0 0
2:15 am 02:15 Clear 29 -1.6 21 -5.9 73 73 WNW 5 7 30.21 1023 10 16.09344 0 0
2:35 am 02:35 Clear 30 -1.1 22 -5.8 71 71 WNW 5 7 30.21 1023 10 16.09344 0 0
2:55 am 02:55 Clear 29 -1.7 21 -6.1 72 72 NW 5 7 30.21 1023 10 16.09344 0 0
3:15 am 03:15 Clear 29 -1.7 21 -6.3 71 71 NW 7 11 30.21 1023 10 16.09344 0 0
3:35 am 03:35 Clear 27 -2.6 20 -6.7 74 74 NNW 6 9 30.21 1023 10 16.09344 0 0
3:55 am 03:55 Clear 26 -3.2 19 -7 75 75 NW 7 11 30.24 1024 10 16.09344 0 0
4:15 am 04:15 Clear 26 -3.1 20 -6.8 76 76 NW 3 6 30.24 1024 10 16.09344 0 0
4:35 am 04:35 Clear 27 -2.8 20 -6.6 75 75 NW 6 9 30.24 1024 10 16.09344 0 0
4:55 am 04:55 Clear 27 -2.9 20 -6.6 76 76 W 5 7 30.24 1024 10 16.09344 0 0
5:15 am 05:15 Clear 27 -2.6 20 -6.7 74 74 WNW 7 11 30.21 1023 10 16.09344 0 0
5:35 am 05:35 Clear 26 -3.2 19 -7.1 75 75 W 5 7 30.24 1024 10 16.09344 0 0
5:55 am 05:55 Clear 26 -3.5 19 -7.1 76 76 WNW 7 11 30.24 1024 10 16.09344 0 0
6:15 am 06:15 Clear 24 -4.4 19 -7.5 79 79 NW 6 9 30.27 1025 10 16.09344 0 0
6:35 am 06:35 Clear 24 -4.6 19 -7.5 80 80 WNW 5 7 30.27 1025 10 16.09344 0 0
6:55 am 06:55 Clear 25 -3.9 19 -7.1 79 79 NW 6 9 30.27 1025 10 16.09344 0 0
7:15 am 07:15 Clear 28 -2.2 20 -6.4 73 73 WNW 7 11 30.24 1024 10 16.09344 0 0
7:35 am 07:35 Clear 28 -2 21 -6.2 73 73 WNW 3 6 30.24 1024 10 16.09344 0 0
7:55 am 07:55 Sunny 28 -2 21 -6 74 74 NW 5 7 30.24 1024 10 16.09344 0 0
8:15 am 08:15 Sunny 30 -1.1 22 -5.6 72 72 WNW 3 6 30.24 1024 10 16.09344 0 0
8:35 am 08:35 Sunny 31 -0.7 23 -5.2 72 72 WNW 3 6 30.24 1024 10 16.09344 0 0
8:55 am 08:55 Sunny 32 0 24 -4.3 73 73 NW 5 7 30.24 1024 10 16.09344 0 0
9:15 am 09:15 Sunny 33 0.6 26 -3.4 75 75 Calm 30.24 1024 10 16.09344 0 0
9:35 am 09:35 Partly Cloudy 35 1.6 26 -3.5 69 69 Calm 30.21 1023 10 16.09344 0 0
9:55 am 09:55 Sunny 37 2.7 25 -3.8 63 63 WNW 3 6 30.21 1023 10 16.09344 0 0
10:15 am 10:15 Sunny 38 3.6 25 -3.9 58 58 W 3 6 30.21 1023 10 16.09344 0 0
10:35 am 10:35 Sunny 42 5.3 25 -4 51 51 Calm 30.18 1022 10 16.09344 0 0
10:55 am 10:55 Sunny 45 7 24 -4.3 45 45 Calm 30.18 1022 10 16.09344 0 0
11:15 am 11:15 Sunny 47 8.6 23 -5.1 38 38 Calm 30.15 1021 10 16.09344 0 0
11:35 am 11:35 Sunny 49 9.5 23 -5 36 36 Calm 30.15 1021 10 16.09344 0 0
11:55 am 11:55 Sunny 50 10.2 23 -4.9 34 34 SE 5 7 30.15 1021 10 16.09344 0 0
12:15 pm 12:15 Sunny 52 11.3 23 -5.1 32 32 SSW 6 9 30.12 1020 10 16.09344 0 0
12:35 pm 12:35 Sunny 53 11.9 23 -5 31 31 SSW 7 11 30.09 1019 10 16.09344 0 0
12:55 pm 12:55 Sunny 55 12.5 22 -5.3 29 29 S 6 9 30.12 1020 10 16.09344 0 0
1:15 pm 13:15 Sunny 55 12.6 23 -5.1 29 29 SSW 6 9 30.09 1019 10 16.09344 0 0
1:35 pm 13:35 Sunny 55 12.6 23 -5.2 29 29 SSW 7 11 30.09 1019 10 16.09344 0 0
1:55 pm 13:55 Sunny 55 13 22 -5.7 27 27 S 6 9 30.09 1019 10 16.09344 0 0
2:15 pm 14:15 Sunny 56 13.1 22 -5.6 27 27 SSW 9 15 30.06 1018 10 16.09344 0 0
2:35 pm 14:35 Sunny 56 13.1 22 -5.6 27 27 S 8 13 30.06 1018 10 16.09344 0 0
2:55 pm 14:55 Sunny 55 13 22 -5.5 27 27 S 10 17 30.06 1018 10 16.09344 0 0
3:15 pm 15:15 Sunny 55 13 23 -4.9 29 29 S 9 15 30.06 1018 10 16.09344 0 0
3:35 pm 15:35 Sunny 55 13 24 -4.6 29 29 S 10 17 30.06 1018 10 16.09344 0 0
3:55 pm 15:55 Sunny 55 12.5 24 -4.3 31 31 S 9 15 30.03 1017 10 16.09344 0 0
4:15 pm 16:15 Sunny 54 12 23 -4.8 31 31 S 6 9 30.06 1018 10 16.09344 0 0
4:35 pm 16:35 Sunny 52 11.3 23 -4.8 32 32 S 5 7 30.06 1018 10 16.09344 0 0
4:55 pm 16:55 Sunny 51 10.7 23 -4.8 34 34 SSW 3 6 30.06 1018 10 16.09344 0 0
5:15 pm 17:15 Clear 49 9.6 23 -5.2 35 35 SSW 3 6 30.09 1019 10 16.09344 0 0
5:35 pm 17:35 Clear 48 8.9 23 -5.1 37 37 SSW 3 6 30.09 1019 10 16.09344 0 0
5:55 pm 17:55 Clear 45 7.4 22 -5.5 40 40 S 6 9 30.12 1020 10 16.09344 0 0
6:15 pm 18:15 Clear 43 6.1 21 -6 42 42 S 6 9 30.15 1021 10 16.09344 0 0
6:35 pm 18:35 Clear 44 6.5 22 -5.7 42 42 S 7 11 30.15 1021 10 16.09344 0 0
6:55 pm 18:55 Clear 42 5.8 21 -6.1 42 42 S 7 11 30.15 1021 10 16.09344 0 0
7:15 pm 19:15 Clear 40 4.6 21 -6 47 47 S 7 11 30.15 1021 10 16.09344 0 0
7:35 pm 19:35 Clear 42 5.5 21 -6 44 44 S 7 11 30.15 1021 10 16.09344 0 0
7:55 pm 19:55 Clear 40 4.5 21 -5.9 47 47 S 10 17 30.12 1020 10 16.09344 0 0
8:15 pm 20:15 Clear 40 4.3 21 -6.1 47 47 S 12 19 30.12 1020 10 16.09344 0 0
8:35 pm 20:35 Clear 42 5.6 20 -6.5 42 42 S 9 15 30.12 1020 10 16.09344 0 0
8:55 pm 20:55 Clear 41 5.2 20 -6.6 43 43 S 8 13 30.12 1020 10 16.09344 0 0
9:15 pm 21:15 Clear 39 3.7 20 -6.6 47 47 S 6 9 30.12 1020 10 16.09344 0 0
9:35 pm 21:35 Clear 39 4 20 -6.4 47 47 S 6 9 30.12 1020 10 16.09344 0 0
9:55 pm 21:55 Clear 37 2.6 20 -6.5 52 52 S 7 11 30.15 1021 10 16.09344 0 0
10:15 pm 22:15 Clear 37 2.8 21 -6.1 52 52 S 5 7 30.15 1021 10 16.09344 0 0
10:35 pm 22:35 Clear 40 4.2 23 -5 52 52 S 8 13 30.12 1020 10 16.09344 0 0
10:55 pm 22:55 Clear 41 5.1 24 -4.5 50 50 S 8 13 30.12 1020 10 16.09344 0 0
11:15 pm 23:15 Clear 36 2.4 24 -4.7 60 60 S 5 7 30.15 1021 10 16.09344 0 0
11:35 pm 23:35 Clear 38 3.5 25 -4.1 58 58 S 3 6 30.12 1020 10 16.09344 0 0
11:55 pm 23:55 Clear 38 3.4 25 -4 59 59 SSW 3 6 30.12 1020 10 16.09344 0 0

Powered by AerisWeather